Маргуни

Azerbaijan     39˚48′00″N   47˚06′00″E
temp.,
°C
wind,
m/s
gust,
m/s
humid.,
%
clouds,
%
prec.,
mm/h
press.,
hPa
HPBL,
m
27 november, fri
fri2700:30+3˚sw1272100 0.0 102422
03:30+2˚w117153 0.0 102522
06:30+2˚ssw117424 0.0 102722
09:30+4˚ese226429 0.0 1029306
12:30+5˚ese336814 0.0 1030662
15:30+5˚e226846 0.0 1030628
18:30+4˚se227933 0.0 1033110
21:30+3˚se119349 0.0 1034116
28 november, sat
sat2800:30+2˚nw118522 0.0 103422
03:30+1˚nw118411 0.0 103322
06:30+1˚wnw118325 0.0 103322
09:30+3˚ene117731 0.0 1032222
12:30+4˚e227865 0.0 1030458
15:30+4˚e218082 0.0 1029360
18:30+3˚se1187100 0.0 102990
21:30+2˚ssw019096 0.0 103022
29 november, sun
sun2900:30+2˚w119041 0.0 102922
03:30+1˚wnw118849 0.0 102922
06:30+1˚w1185100 0.0 102822
09:30+4˚ese1073100 0.0 1028144
12:30+6˚ene2164100 0.0 1026503
15:30+6˚ne2166100 0.0 1025430
18:30+4˚e1172100 0.0 1027215
21:30+3˚nw1190100 1.4 1027141
30 november, mon
mon3000:30+3˚nne1195100 2.3 1027105
03:30+3˚e1197100 3.7 102697
06:30+3˚ene1197100 0.4 102586
09:30+4˚ne1197100 0.5 1025104
12:30+6˚e218388 0.0 1024388
15:30+5˚e229189 0.1 1023219
18:30+4˚ese2297100 0.0 1023133
21:30+3˚se229799 0.0 1024149
1 december, tue
tue100:30+2˚ese2395100 0.0 1024170
03:30+2˚ese119698 0.0 102389
06:30+2˚n009564 0.0 102331
09:30+4˚ne118539 0.0 1024160
12:30+6˚ene21796 0.0 1022400
15:30+5˚ene218138 0.0 1022338
18:30+4˚ese118895 0.0 1023121
21:30+3˚sse119388 0.0 102422